2021-08-02 00:09:28 r, 21.08m,0000000001Hz,0001450016c,0000003.147s, 028.3C,00002191
2021-08-02 00:19:27 r, 21.08m,0000000000Hz,0001446117c,0000003.138s, 028.3C,00002191
2021-08-02 00:29:26 r, 21.06m,0000000001Hz,0001425956c,0000003.095s, 028.3C,00002191
2021-08-02 00:39:27 r, 21.06m,0000000001Hz,0001427665c,0000003.098s, 028.3C,00002191
2021-08-02 00:49:29 r, 21.06m,0000000000Hz,0001419393c,0000003.080s, 028.3C,00002191
2021-08-02 00:59:26 r, 21.05m,0000000001Hz,0001415126c,0000003.071s, 027.7C,00002191
2021-08-02 01:09:29 r, 21.04m,0000000000Hz,0001393970c,0000003.025s, 027.3C,00002191
2021-08-02 01:19:27 r, 21.00m,0000000000Hz,0001356508c,0000002.944s, 027.0C,00002191
2021-08-02 01:29:26 r, 20.98m,0000000000Hz,0001334155c,0000002.895s, 026.7C,00002191
2021-08-02 01:39:29 r, 20.93m,0000000000Hz,0001285078c,0000002.789s, 026.7C,00002191
2021-08-02 01:49:27 r, 20.92m,0000000000Hz,0001265751c,0000002.747s, 026.4C,00002191
2021-08-02 01:59:26 r, 20.88m,0000000000Hz,0001216237c,0000002.639s, 026.4C,00002191
2021-08-02 02:09:27 r, 20.85m,0000000000Hz,0001184655c,0000002.571s, 026.1C,00002191
2021-08-02 02:19:28 r, 20.80m,0000000001Hz,0001135253c,0000002.464s, 026.1C,00002191
2021-08-02 02:29:26 r, 20.75m,0000000000Hz,0001086370c,0000002.358s, 026.1C,00002191
2021-08-02 02:39:28 r, 20.72m,0000000000Hz,0001045155c,0000002.268s, 025.7C,00002191
2021-08-02 02:49:27 r, 20.69m,0000000000Hz,0001022224c,0000002.218s, 025.7C,00002191
2021-08-02 02:59:26 r, 20.64m,0000000000Hz,0000978218c,0000002.123s, 025.7C,00002191
2021-08-02 03:09:27 r, 20.59m,0000000000Hz,0000932883c,0000002.024s, 025.7C,00002191
2021-08-02 03:19:29 r, 20.54m,0000000000Hz,0000886127c,0000001.923s, 025.7C,00002191
2021-08-02 03:29:26 r, 20.35m,0000000000Hz,0000756746c,0000001.642s, 025.7C,00002191
2021-08-02 03:39:29 r, 20.11m,0000000001Hz,0000604737c,0000001.312s, 025.4C,00002191
2021-08-02 03:49:27 r, 20.07m,0000000001Hz,0000582588c,0000001.264s, 025.4C,00002191
2021-08-02 03:59:26 r, 20.14m,0000000001Hz,0000619129c,0000001.344s, 025.7C,00002191
2021-08-02 04:09:27 r, 20.07m,0000000001Hz,0000583722c,0000001.267s, 025.7C,00002191
2021-08-02 04:19:28 r, 19.97m,0000000001Hz,0000528946c,0000001.148s, 025.7C,00002191
2021-08-02 04:29:26 r, 19.79m,0000000001Hz,0000449060c,0000000.975s, 025.7C,00002191
2021-08-02 04:39:28 r, 19.32m,0000000001Hz,0000291778c,0000000.633s, 025.7C,00002191
2021-08-02 04:49:27 r, 18.54m,0000000003Hz,0000143956c,0000000.312s, 025.7C,00002191
2021-08-02 04:59:27 r, 17.56m,0000000007Hz,0000057903c,0000000.126s, 025.4C,00002191
2021-08-02 05:09:27 r, 16.20m,0000000028Hz,0000016513c,0000000.036s, 025.4C,00002191
2021-08-02 05:19:29 r, 14.55m,0000000128Hz,0000000000c,0000000.000s, 025.4C,00002191
2021-08-02 05:29:26 r, 12.78m,0000000655Hz,0000000000c,0000000.000s, 025.1C,00002191
2021-08-02 05:39:29 r, 11.07m,0000003143Hz,0000000000c,0000000.000s, 025.1C,00002191
2021-08-02 05:49:27 r, 09.43m,0000014233Hz,0000000000c,0000000.000s, 024.8C,00002191
2021-08-02 05:59:27 r, 08.23m,0000043373Hz,0000000000c,0000000.000s, 024.8C,00002191
2021-08-02 06:09:29 r, 07.52m,0000083310Hz,0000000000c,0000000.000s, 024.8C,00002191
2021-08-02 06:19:27 r, 06.94m,0000141569Hz,0000000000c,0000000.000s, 025.1C,00002191
2021-08-02 06:29:26 r, 06.39m,0000235265Hz,0000000000c,0000000.000s, 025.4C,00002191
2021-08-02 06:39:27 r, 05.88m,0000375512Hz,0000000000c,0000000.000s, 025.7C,00002191
2021-08-02 06:49:28 r, 00.00m,0000503920Hz,0000000000c,0000000.000s, 026.1C,00002191
2021-08-02 06:59:27 r, 00.00m,0000584683Hz,0000000000c,0000000.000s, 026.1C,00002191
2021-08-02 07:09:28 r, 00.00m,0000596514Hz,0000000000c,0000000.000s, 026.7C,00002191
2021-08-02 07:19:27 r, 00.00m,0000596429Hz,0000000000c,0000000.000s, 027.7C,00002191
2021-08-02 07:29:27 r, 00.00m,0000596369Hz,0000000000c,0000000.000s, 028.3C,00002191
2021-08-02 07:39:27 r, 00.00m,0000596346Hz,0000000000c,0000000.000s, 029.3C,00002191
2021-08-02 07:49:29 r, 00.00m,0000596231Hz,0000000000c,0000000.000s, 030.6C,00002191
2021-08-02 07:59:26 r, 00.00m,0000596160Hz,0000000000c,0000000.000s, 031.5C,00002191
2021-08-02 08:09:29 r, 00.00m,0000595938Hz,0000000000c,0000000.000s, 032.5C,00002191
2021-08-02 08:19:27 r, 00.00m,0000595829Hz,0000000000c,0000000.000s, 033.5C,00002191
2021-08-02 08:29:27 r, 00.00m,0000595738Hz,0000000000c,0000000.000s, 034.8C,00002191
2021-08-02 08:39:27 r, 00.00m,0000595655Hz,0000000000c,0000000.000s, 035.7C,00002191
2021-08-02 08:49:28 r, 00.00m,0000595339Hz,0000000000c,0000000.000s, 036.7C,00002191
2021-08-02 08:59:27 r, 00.00m,0000595244Hz,0000000000c,0000000.000s, 037.7C,00002191
2021-08-02 09:09:27 r, 00.00m,0000595204Hz,0000000000c,0000000.000s, 038.6C,00002191
2021-08-02 09:19:29 r, 00.00m,0000595117Hz,0000000000c,0000000.000s, 039.6C,00002191
2021-08-02 09:29:27 r, 00.00m,0000595078Hz,0000000000c,0000000.000s, 040.2C,00002191
2021-08-02 09:39:27 r, 00.00m,0000594826Hz,0000000000c,0000000.000s, 041.2C,00002191
2021-08-02 09:49:29 r, 00.00m,0000594759Hz,0000000000c,0000000.000s, 041.9C,00002191
2021-08-02 09:59:27 r, 00.00m,0000594768Hz,0000000000c,0000000.000s, 042.5C,00002191
2021-08-02 10:09:27 r, 00.00m,0000594703Hz,0000000000c,0000000.000s, 043.1C,00002191
2021-08-02 10:19:27 r, 00.00m,0000594485Hz,0000000000c,0000000.000s, 044.1C,00002191
2021-08-02 10:29:27 r, 00.00m,0000594426Hz,0000000000c,0000000.000s, 044.4C,00002191
2021-08-02 10:39:27 r, 00.00m,0000594282Hz,0000000000c,0000000.000s, 045.1C,00002191
2021-08-02 10:49:27 r, 00.00m,0000594226Hz,0000000000c,0000000.000s, 045.4C,00002191
2021-08-02 10:59:27 r, 00.00m,0000594198Hz,0000000000c,0000000.000s, 045.7C,00002191
2021-08-02 11:09:27 r, 00.00m,0000594238Hz,0000000000c,0000000.000s, 045.1C,00002191
2021-08-02 11:19:29 r, 00.00m,0000594328Hz,0000000000c,0000000.000s, 045.1C,00002191
2021-08-02 11:29:27 r, 00.00m,0000594448Hz,0000000000c,0000000.000s, 044.4C,00002191
2021-08-02 11:39:27 r, 00.00m,0000594432Hz,0000000000c,0000000.000s, 044.1C,00002191
2021-08-02 11:49:29 r, 00.00m,0000594240Hz,0000000000c,0000000.000s, 044.8C,00002191
2021-08-02 11:59:27 r, 00.00m,0000593894Hz,0000000000c,0000000.000s, 047.0C,00002191
2021-08-02 12:09:27 r, 00.00m,0000593768Hz,0000000000c,0000000.000s, 048.0C,00002191
2021-08-02 12:19:28 r, 00.00m,0000593788Hz,0000000000c,0000000.000s, 048.0C,00002191
2021-08-02 12:29:28 r, 00.00m,0000593921Hz,0000000000c,0000000.000s, 047.3C,00002191
2021-08-02 12:39:27 r, 00.00m,0000594162Hz,0000000000c,0000000.000s, 046.4C,00002191
2021-08-02 12:49:28 r, 00.00m,0000594234Hz,0000000000c,0000000.000s, 045.4C,00002191
2021-08-02 12:59:27 r, 00.00m,0000594243Hz,0000000000c,0000000.000s, 045.7C,00002191
2021-08-02 13:09:27 r, 00.00m,0000594025Hz,0000000000c,0000000.000s, 046.4C,00002191
2021-08-02 13:19:27 r, 00.00m,0000593862Hz,0000000000c,0000000.000s, 047.7C,00002191
2021-08-02 13:29:29 r, 00.00m,0000593526Hz,0000000000c,0000000.000s, 049.6C,00002191
2021-08-02 13:39:27 r, 00.00m,0000593433Hz,0000000000c,0000000.000s, 050.2C,00002191
2021-08-02 13:49:29 r, 00.00m,0000593310Hz,0000000000c,0000000.000s, 051.2C,00002191
2021-08-02 13:59:28 r, 00.00m,0000593232Hz,0000000000c,0000000.000s, 051.5C,00002191
2021-08-02 14:09:27 r, 00.00m,0000593125Hz,0000000000c,0000000.000s, 051.8C,00002191
2021-08-02 14:19:28 r, 00.00m,0000593159Hz,0000000000c,0000000.000s, 051.8C,00002191
2021-08-02 14:29:28 r, 00.00m,0000593208Hz,0000000000c,0000000.000s, 051.8C,00002191
2021-08-02 14:39:27 r, 00.00m,0000593196Hz,0000000000c,0000000.000s, 051.8C,00002191
2021-08-02 14:49:28 r, 00.00m,0000593202Hz,0000000000c,0000000.000s, 051.8C,00002191
2021-08-02 14:59:28 r, 00.00m,0000593068Hz,0000000000c,0000000.000s, 052.5C,00002191
2021-08-02 15:09:27 r, 00.00m,0000593048Hz,0000000000c,0000000.000s, 052.5C,00002191
2021-08-02 15:19:28 r, 00.00m,0000593165Hz,0000000000c,0000000.000s, 052.8C,00002191
2021-08-02 15:29:29 r, 00.00m,0000593115Hz,0000000000c,0000000.000s, 052.5C,00002191
2021-08-02 15:39:27 r, 00.00m,0000593175Hz,0000000000c,0000000.000s, 051.8C,00002191
2021-08-02 15:49:29 r, 00.00m,0000593178Hz,0000000000c,0000000.000s, 051.8C,00002191
2021-08-02 15:59:28 r, 00.00m,0000593185Hz,0000000000c,0000000.000s, 051.8C,00002191
2021-08-02 16:09:27 r, 00.00m,0000593178Hz,0000000000c,0000000.000s, 051.8C,00002191
2021-08-02 16:19:28 r, 00.00m,0000593231Hz,0000000000c,0000000.000s, 051.8C,00002191
2021-08-02 16:29:29 r, 00.00m,0000593242Hz,0000000000c,0000000.000s, 051.2C,00002191
2021-08-02 16:39:27 r, 00.00m,0000593393Hz,0000000000c,0000000.000s, 050.9C,00002191
2021-08-02 16:49:29 r, 00.00m,0000593382Hz,0000000000c,0000000.000s, 050.6C,00002191
2021-08-02 16:59:28 r, 00.00m,0000593487Hz,0000000000c,0000000.000s, 050.2C,00002191
2021-08-02 17:09:27 r, 00.00m,0000593496Hz,0000000000c,0000000.000s, 049.9C,00002191
2021-08-02 17:19:28 r, 00.00m,0000593607Hz,0000000000c,0000000.000s, 049.3C,00002191
2021-08-02 17:29:29 r, 00.00m,0000593681Hz,0000000000c,0000000.000s, 048.9C,00002191
2021-08-02 17:39:27 r, 00.00m,0000593751Hz,0000000000c,0000000.000s, 048.3C,00002191
2021-08-02 17:49:30 r, 00.00m,0000593740Hz,0000000000c,0000000.000s, 048.3C,00002191
2021-08-02 17:59:28 r, 00.00m,0000593841Hz,0000000000c,0000000.000s, 047.7C,00002191
2021-08-02 18:09:27 r, 00.00m,0000593898Hz,0000000000c,0000000.000s, 047.0C,00002191
2021-08-02 18:19:30 r, 00.00m,0000594023Hz,0000000000c,0000000.000s, 046.4C,00002191
2021-08-02 18:29:28 r, 00.00m,0000594041Hz,0000000000c,0000000.000s, 046.0C,00002191
2021-08-02 18:39:27 r, 00.00m,0000594178Hz,0000000000c,0000000.000s, 045.7C,00002191
2021-08-02 18:49:28 r, 00.00m,0000594211Hz,0000000000c,0000000.000s, 045.1C,00002191
2021-08-02 18:59:30 r, 00.00m,0000594292Hz,0000000000c,0000000.000s, 044.4C,00002191
2021-08-02 19:09:27 r, 00.00m,0000594422Hz,0000000000c,0000000.000s, 043.8C,00002191
2021-08-02 19:19:29 r, 00.00m,0000594479Hz,0000000000c,0000000.000s, 043.1C,00002191
2021-08-02 19:29:28 r, 00.00m,0000594508Hz,0000000000c,0000000.000s, 042.8C,00002191
2021-08-02 19:39:27 r, 00.00m,0000594650Hz,0000000000c,0000000.000s, 042.5C,00002191
2021-08-02 19:49:30 r, 00.00m,0000594738Hz,0000000000c,0000000.000s, 041.5C,00002191
2021-08-02 19:59:28 r, 00.00m,0000556870Hz,0000000000c,0000000.000s, 040.9C,00002191
2021-08-02 20:09:27 r, 00.00m,0000465239Hz,0000000000c,0000000.000s, 039.9C,00002191
2021-08-02 20:19:30 r, 00.00m,0000409289Hz,0000000000c,0000000.000s, 038.6C,00002191
2021-08-02 20:29:28 r, 06.16m,0000291322Hz,0000000000c,0000000.000s, 038.0C,00002191
2021-08-02 20:39:27 r, 06.79m,0000163214Hz,0000000000c,0000000.000s, 037.3C,00002191
2021-08-02 20:49:28 r, 07.27m,0000104016Hz,0000000000c,0000000.000s, 036.4C,00002191
2021-08-02 20:59:29 r, 07.85m,0000061354Hz,0000000000c,0000000.000s, 035.7C,00002191
2021-08-02 21:09:27 r, 08.60m,0000030693Hz,0000000000c,0000000.000s, 035.1C,00002191
2021-08-02 21:19:29 r, 09.73m,0000010894Hz,0000000000c,0000000.000s, 034.8C,00002191
2021-08-02 21:29:28 r, 11.24m,0000002711Hz,0000000000c,0000000.000s, 034.1C,00002191
2021-08-02 21:39:27 r, 12.91m,0000000582Hz,0000000000c,0000000.000s, 033.8C,00002191
2021-08-02 21:49:30 r, 14.63m,0000000119Hz,0000003892c,0000000.008s, 033.5C,00002191
2021-08-02 21:59:28 r, 16.29m,0000000025Hz,0000018156c,0000000.039s, 033.1C,00002191
2021-08-02 22:09:27 r, 17.70m,0000000007Hz,0000066053c,0000000.143s, 032.8C,00002191
2021-08-02 22:19:30 r, 18.85m,0000000002Hz,0000187899c,0000000.408s, 032.5C,00002191
2021-08-02 22:29:28 r, 19.73m,0000000001Hz,0000423311c,0000000.919s, 032.2C,00002191
2021-08-02 22:39:27 r, 20.35m,0000000001Hz,0000742654c,0000001.612s, 031.9C,00002191
2021-08-02 22:49:28 r, 20.70m,0000000001Hz,0001027663c,0000002.230s, 031.5C,00002191
2021-08-02 22:59:29 r, 20.85m,0000000000Hz,0001178592c,0000002.558s, 031.5C,00002191
2021-08-02 23:09:27 r, 20.92m,0000000001Hz,0001249150c,0000002.711s, 031.2C,00002191
2021-08-02 23:19:29 r, 20.95m,0000000000Hz,0001289078c,0000002.797s, 031.2C,00002191
2021-08-02 23:29:28 r, 20.96m,0000000000Hz,0001317801c,0000002.860s, 030.9C,00002191
2021-08-02 23:39:27 r, 20.91m,0000000000Hz,0001252805c,0000002.719s, 030.9C,00002191
2021-08-02 23:49:28 r, 20.90m,0000000000Hz,0001243090c,0000002.698s, 030.6C,00002191
2021-08-02 23:59:30 r, 20.93m,0000000001Hz,0001271647c,0000002.760s, 030.2C,00002191
